Temperature
21 21 21 20 19 19 19 18 18 18 17 17 17 17 17 17 17 17 16 16 16 16 15 15 15 15 15 15 15 15 15 14 14 14 14 14 14 14 14 13 13 14 13
21 21 20 19 19 18 18 18 17 17 17 17 17 17 17 16 16 16 16 16 16 15 15 15 15 15 15 15 14 14 14 14 14 14 14 14 14 14 13 13 13 13 13
20 20 20 19 18 18 17 17 17 17 17 17 16 16 16 16 16 16 16 16 15 15 15 14 14 14 14 14 14 14 14 14 13 13 13 13 13 13 13 13 13 13 13
20 19 19 18 18 17 17 17 17 17 17 16 16 16 16 16 16 15 15 15 15 14 14 14 14 14 14 14 14 14 14 13 13 12 12 13 13 13 12 12 12 12 13
19 19 18 18 17 17 16 16 16 16 16 16 16 16 16 15 15 15 15 15 14 14 14 14 14 14 14 14 14 14 13 13 12 12 12 12 12 12 12 12 12 12 12
19 18 18 17 17 16 16 16 16 16 16 16 16 15 15 15 15 14 14 14 14 14 14 14 14 14 14 14 14 13 13 12 12 12 12 12 12 12 12 12 12 12 12
18 18 17 17 16 16 16 16 16 16 16 15 15 15 15 15 14 14 14 14 13 13 13 13 14 14 14 14 13 13 12 12 12 12 12 12 11 11 11 11 11 12 12
18 17 17 16 16 16 16 16 15 15 15 15 15 15 15 14 14 14 13 13 13 13 13 13 13 13 13 13 13 13 12 12 11 11 12 11 11 11 11 11 11 11 11
17 17 16 16 16 16 15 15 15 15 15 15 15 14 14 14 14 13 13 13 13 13 13 13 13 13 13 13 13 12 12 11 11 11 11 11 11 10 10 11 11 11 11
17 16 16 16 15 15 15 15 15 15 15 15 14 14 14 13 13 13 13 13 13 13 12 12 13 13 13 13 13 12 12 11 11 11 11 11 11 10 10 10 10 10 10
16 16 16 16 15 15 15 15 15 14 14 14 14 14 13 13 13 13 13 12 12 12 12 12 12 12 13 12 12 12 11 11 11 11 11 11 10 10 10 10 10 10 10
16 16 15 15 15 15 15 14 14 14 14 14 13 13 13 13 12 12 12 12 12 12 12 12 12 12 12 12 12 11 11 11 11 11 11 11 10 10 10 10 10 10 10
16 15 15 15 15 15 14 14 14 14 13 13 13 13 13 12 12 12 12 12 12 12 12 12 12 11 11 11 11 11 11 11 10 11 11 10 10 10 10 10 10 10 10
15 15 15 15 14 14 14 14 14 13 13 13 13 13 12 12 12 12 12 12 12 11 11 11 11 11 11 11 11 11 11 10 10 10 10 10 10 10 10 10 10 9 9
14 15 15 14 14 14 14 14 13 13 13 13 13 12 12 12 12 12 12 11 11 11 11 11 11 11 11 11 11 11 10 10 10 10 10 10 10 10 10 10 10 9 9
14 14 14 14 14 14 13 13 13 13 13 13 12 12 12 12 12 12 11 11 11 11 11 11 10 10 10 10 10 10 10 10 10 10 10 10 10 10 10 10 9 9 9
14 14 14 14 13 13 13 13 13 13 13 12 12 12 12 12 12 11 11 11 11 11 11 11 10 10 10 10 10 10 10 10 10 10 10 10 10 10 10 10 10 9 9
13 13 13 13 13 13 13 13 13 13 12 12 12 12 12 12 12 11 11 11 11 11 11 10 10 10 10 10 10 10 10 10 10 10 10 10 9 9 9 9 9 9 9
13 13 13 13 13 13 13 13 13 12 12 12 12 12 12 12 12 11 11 11 11 11 11 10 10 10 10 10 10 10 10 10 10 10 9 9 9 9 9 9 9 9 9
12 12 12 13 12 12 12 12 12 12 12 12 12 12 12 12 12 12 12 11 11 11 11 10 10 10 10 10 10 10 10 10 10 10 9 9 9 9 9 9 9 9 9
12 12 12 12 12 12 12 12 12 12 12 12 12 11 12 12 12 12 12 11 11 11 11 10 10 10 10 10 10 9 9 9 9 9 9 9 9 9 9 9 9 9 9
11 11 11 11 12 12 12 12 12 12 12 12 12 11 11 12 12 12 12 11 11 11 11 10 10 10 9 9 10 9 9 9 9 9 9 9 9 9 9 9 9 9 9
11 11 11 11 11 11 11 11 12 11 11 11 11 11 11 11 12 12 12 11 11 11 11 10 10 10 9 9 9 10 9 9 9 9 9 9 9 9 9 9 9 9 9
10 11 11 11 11 11 11 11 11 11 11 11 11 11 11 11 11 12 11 11 11 11 11 11 10 10 10 9 9 10 10 10 10 9 9 9 9 9 9 9 9 9 8
10 10 10 11 11 11 11 11 11 11 11 11 11 11 11 11 11 11 11 11 11 11 11 11 10 10 10 10 9 9 10 10 10 9 9 9 9 9 9 9 9 8 8
10 10 10 10 11 10 11 11 11 11 11 11 11 11 11 11 11 11 11 11 11 11 11 11 10 10 10 9 9 10 10 10 10 10 9 9 9 9 8 8 8 8 8
Wind_Speed
9 16 23 21 21 20 21 21 21 21 20 20 19 18 18 18 18 18 18 18 17 17 17 17 17 18 18 19 19 18 18 17 17 17 17 17 17 17 17 17 16 15 17
10 17 24 22 21 20 21 21 20 21 20 20 19 19 18 18 18 18 17 18 17 17 17 17 18 18 18 18 18 17 16 15 15 16 17 17 17 17 17 17 16 15 17
12 17 22 22 21 20 21 20 21 21 21 20 20 19 19 18 18 18 18 18 17 17 18 18 18 18 18 17 17 16 14 13 12 13 15 14 16 17 17 17 17 17 18
11 15 19 21 21 20 21 21 21 21 21 20 20 19 19 18 18 18 18 18 18 18 18 18 18 18 17 16 16 14 13 11 10 12 14 14 14 16 17 17 17 18 18
9 13 18 23 21 21 21 21 21 22 21 21 20 19 19 19 18 18 18 18 19 19 19 18 18 17 17 16 14 13 11 9 10 14 16 15 14 15 16 17 17 17 17
7 11 18 24 22 21 21 21 21 22 22 21 20 20 19 19 19 19 19 19 19 19 19 18 17 17 16 15 13 12 9 8 12 15 16 15 13 14 15 15 16 16 16
7 9 16 23 23 22 21 21 21 22 22 21 21 20 20 20 19 19 19 19 19 19 18 17 17 16 15 14 13 10 8 9 13 15 15 13 12 13 14 15 14 15 15
7 8 13 20 22 22 21 21 21 22 22 22 21 20 20 20 20 20 20 19 19 18 18 17 17 16 15 14 11 8 6 8 12 14 14 12 12 13 13 13 13 13 14
7 8 10 14 18 20 21 21 21 22 23 22 21 21 21 21 20 20 20 19 19 18 18 17 16 16 15 13 10 7 6 8 10 12 13 11 11 12 12 12 12 12 13
7 8 8 10 12 14 16 20 21 21 22 22 22 21 21 21 20 20 19 19 19 18 18 17 16 15 14 13 9 5 4 5 10 14 12 11 10 10 11 11 11 11 12
6 8 10 10 10 11 13 16 18 20 21 21 20 21 20 17 17 17 18 19 19 18 17 16 16 15 14 11 8 5 2 4 12 13 11 10 9 9 9 10 10 10 10
6 7 9 10 10 10 11 12 13 14 16 17 17 19 16 16 15 16 19 19 19 18 17 16 15 15 12 10 7 5 2 7 11 12 10 9 8 8 9 9 9 8 8
7 8 8 9 9 10 8 9 8 10 11 14 17 17 15 14 14 14 14 15 16 17 14 14 13 10 10 9 6 5 3 7 9 12 10 9 7 7 7 7 7 7 6
8 9 9 9 9 9 9 8 8 8 8 9 14 17 13 9 9 11 10 11 11 11 11 10 8 8 9 9 7 5 5 6 10 12 10 9 7 6 6 5 5 5 5
8 9 9 10 10 9 9 8 9 8 9 11 12 15 15 10 9 10 9 10 10 11 10 7 6 7 7 7 6 5 5 6 9 11 10 9 7 6 5 4 4 3 3
10 9 9 10 11 10 8 8 9 9 10 11 11 13 16 13 10 9 9 8 9 11 10 7 6 6 5 4 4 5 5 6 8 10 11 9 7 6 5 3 3 3 2
10 9 10 11 11 11 10 10 9 9 10 10 11 14 15 15 13 10 9 8 8 11 10 7 6 5 4 4 4 4 4 4 6 8 10 10 8 6 5 4 2 2 1
9 10 10 10 11 11 10 9 8 9 10 10 11 13 15 16 16 11 9 9 10 10 7 5 5 5 4 4 3 3 3 3 3 5 8 8 9 7 6 5 3 2 0
9 9 10 10 11 11 10 8 8 9 9 9 11 11 14 16 17 13 9 9 12 8 6 6 5 5 5 4 4 3 2 3 2 3 4 7 8 8 7 6 4 3 1
8 8 10 10 10 9 8 7 7 8 8 9 9 11 14 15 17 14 10 11 11 8 7 7 6 5 5 5 4 3 2 3 2 3 3 5 7 7 7 7 6 4 3
6 7 9 10 11 9 8 8 9 9 8 8 9 12 14 15 16 14 10 11 10 9 9 9 7 7 5 4 4 2 0 2 3 3 3 3 5 7 6 6 6 5 4
7 7 8 10 10 10 9 8 8 8 8 8 9 11 14 15 15 14 13 11 11 9 10 9 8 6 4 5 5 4 1 1 2 3 3 3 3 5 5 6 5 4 3
7 8 8 9 9 9 9 7 7 7 7 7 10 11 12 14 15 14 14 12 11 10 10 10 9 8 6 5 5 4 3 4 2 2 4 4 4 3 3 5 5 5 4
7 8 8 8 10 10 9 10 10 9 9 9 9 9 12 13 14 16 15 13 12 10 10 10 9 7 8 7 5 3 2 3 3 2 2 3 5 4 4 3 4 5 4
6 7 8 8 8 10 10 11 12 10 9 8 9 11 12 12 14 15 15 14 13 11 11 11 10 9 7 6 5 4 2 1 2 3 3 3 2 3 4 4 4 5 5
4 5 6 8 8 9 10 11 13 12 11 10 11 12 11 10 12 15 15 14 13 11 12 11 11 11 8 7 6 5 4 3 3 3 3 3 3 3 3 3 3 4 5
Wind_Direction
130 147 158 160 160 158 156 153 151 147 145 142 139 137 133 129 125 122 122 121 119 116 113 111 107 103 99 96 93 90 88 87 86 84 81 78 76 73 69 69 70 66 67
134 147 157 160 162 160 158 155 152 149 146 145 143 140 137 134 131 129 127 125 123 120 116 113 110 106 102 99 95 92 91 91 91 88 83 78 76 73 70 71 72 72 70
133 143 157 159 162 162 159 157 154 151 149 148 146 143 141 139 135 134 131 128 125 120 117 114 110 106 103 101 98 95 94 96 94 89 86 80 76 75 75 76 73 73 71
135 144 159 160 163 164 162 159 157 154 152 151 149 147 145 142 140 138 134 129 125 121 117 114 110 108 105 103 101 99 98 94 85 82 80 77 76 77 77 76 75 73 70
139 149 157 161 165 165 163 160 158 156 154 152 151 150 148 146 143 140 135 131 126 123 119 116 113 111 109 107 105 103 99 87 78 82 81 77 76 79 77 76 74 73 70
140 148 154 162 166 167 165 163 161 158 156 155 153 151 150 146 143 140 136 132 128 125 122 120 118 115 112 111 109 106 95 74 79 83 82 79 77 81 80 77 75 73 71
143 144 154 163 166 167 167 166 164 161 159 156 154 153 151 148 144 140 137 134 132 129 127 124 121 119 116 114 112 107 85 69 88 85 83 81 82 83 83 78 75 74 71
145 148 153 164 166 168 169 168 166 164 160 157 155 153 152 149 146 143 140 138 136 134 131 128 126 123 120 117 114 105 72 76 93 94 90 85 86 87 85 79 77 75 72
147 147 153 163 167 169 170 169 167 164 161 159 157 155 153 150 148 146 144 142 139 137 134 132 129 126 123 121 118 105 75 72 93 99 95 86 90 90 87 84 80 77 73
149 153 161 163 164 168 169 168 166 164 162 160 157 154 151 150 149 147 145 144 143 140 137 135 132 129 127 126 126 119 88 75 95 92 93 92 93 94 91 88 83 80 75
169 165 168 171 169 165 166 168 164 163 161 158 156 151 149 149 148 147 145 146 145 143 140 139 138 134 131 133 141 149 138 105 99 94 94 101 101 99 95 93 87 82 77
192 180 175 172 170 166 167 164 163 165 162 161 158 158 157 154 150 147 144 147 147 145 143 144 144 143 142 148 162 177 189 113 104 103 101 108 108 103 100 97 91 84 78
205 198 184 173 172 169 168 170 167 163 165 165 163 167 156 147 143 140 143 144 145 146 145 149 153 162 157 153 168 176 131 103 106 107 108 111 114 110 104 100 98 89 81
216 206 192 176 174 173 171 175 169 168 170 168 170 166 155 152 149 150 153 154 156 157 152 160 171 169 153 153 168 155 126 109 109 114 116 115 117 121 116 107 103 93 82
230 212 200 184 178 177 174 175 176 173 174 171 170 167 159 156 157 157 158 160 163 159 160 171 170 160 150 159 164 140 128 117 119 123 127 125 120 125 127 121 110 102 87
227 218 206 192 182 179 179 177 177 175 174 172 169 168 162 160 161 161 157 162 162 159 165 171 163 153 149 149 149 141 142 133 129 131 139 138 135 132 131 126 119 111 86
220 218 211 198 188 181 181 183 179 178 177 174 172 168 166 162 162 163 159 160 160 160 163 166 154 143 141 142 151 144 135 129 134 140 146 150 152 148 142 136 121 123 82
218 215 215 205 193 185 183 185 180 179 179 176 171 171 168 165 165 164 159 161 161 158 158 154 150 142 145 149 151 143 132 131 144 146 147 153 156 157 162 162 156 161 162
218 214 212 203 194 188 183 183 186 179 179 177 173 171 171 168 167 163 160 160 159 154 155 158 152 148 151 151 146 139 141 139 158 147 153 152 150 154 164 175 175 181 204
214 214 211 205 196 187 181 182 187 180 180 178 175 173 171 170 167 162 160 160 158 155 158 157 155 152 151 151 146 142 156 162 161 163 172 158 159 163 165 167 172 189 212
210 214 210 202 197 186 183 185 186 185 182 181 175 176 172 170 169 163 161 162 160 161 165 162 157 157 159 146 124 121 208 190 177 181 179 167 168 171 173 171 171 182 202
209 217 218 206 197 191 190 189 184 182 184 183 176 177 175 173 171 169 163 164 164 164 166 167 158 158 164 155 145 142 169 232 249 201 180 180 180 172 171 179 177 183 182
210 212 217 212 199 195 192 183 182 182 181 185 182 179 180 178 174 172 167 164 167 166 170 170 166 163 168 171 165 159 158 193 202 217 204 188 187 178 175 175 180 186 187
219 214 213 209 200 198 193 187 184 192 194 188 182 181 181 180 177 174 171 168 169 169 170 174 171 166 163 173 190 205 175 147 148 183 232 209 191 183 181 173 174 177 179
228 220 212 203 204 202 199 194 190 195 201 185 176 180 186 184 181 175 174 172 172 172 173 174 170 171 173 172 175 178 188 165 160 152 198 214 208 200 181 172 164 166 171
248 232 215 203 206 205 203 196 192 192 194 185 181 183 190 188 184 178 177 176 175 175 175 175 174 175 177 175 173 170 163 165 184 174 186 192 202 211 190 173 162 162 164
Height
1465 1466 1468 1471 1475 1478 1481 1484 1488 1491 1494 1497 1499 1502 1504 1506 1508 1510 1512 1514 1515 1517 1518 1519 1520 1521 1522 1523 1523 1524 1525 1526 1526 1527 1527 1528 1528 1528 1528 1528 1528 1528 1528
1464 1465 1468 1471 1474 1478 1481 1484 1487 1490 1493 1496 1499 1502 1504 1506 1508 1510 1512 1514 1515 1517 1518 1519 1520 1522 1522 1523 1524 1525 1526 1527 1528 1528 1528 1529 1529 1529 1529 1529 1530 1530 1530
1463 1465 1467 1471 1474 1477 1481 1484 1487 1490 1493 1496 1499 1502 1504 1506 1508 1510 1512 1514 1515 1517 1518 1520 1521 1522 1523 1524 1525 1526 1527 1528 1529 1529 1529 1530 1530 1530 1530 1531 1531 1531 1531
1464 1465 1467 1470 1474 1477 1480 1483 1487 1490 1493 1496 1498 1501 1503 1506 1508 1510 1512 1514 1515 1517 1519 1520 1521 1522 1523 1524 1525 1527 1528 1529 1530 1530 1530 1531 1531 1532 1532 1532 1532 1532 1532
1464 1465 1467 1470 1473 1477 1480 1483 1486 1489 1492 1495 1498 1500 1503 1505 1507 1510 1512 1513 1515 1517 1519 1520 1521 1523 1524 1525 1526 1528 1529 1530 1531 1531 1531 1532 1532 1533 1533 1533 1534 1534 1533
1464 1466 1467 1469 1473 1476 1479 1482 1485 1488 1491 1494 1497 1499 1502 1504 1507 1509 1511 1513 1515 1517 1519 1520 1522 1523 1524 1526 1527 1529 1530 1531 1532 1532 1532 1533 1533 1534 1534 1535 1535 1535 1535
1463 1465 1467 1469 1472 1475 1478 1481 1484 1487 1490 1493 1496 1499 1501 1504 1506 1508 1511 1513 1515 1517 1518 1520 1522 1523 1524 1526 1528 1529 1531 1532 1532 1533 1533 1534 1534 1535 1535 1536 1536 1536 1535
1462 1464 1466 1469 1471 1474 1477 1480 1483 1486 1489 1492 1495 1498 1500 1502 1505 1507 1510 1512 1514 1516 1518 1520 1522 1523 1525 1527 1528 1530 1531 1532 1533 1533 1534 1535 1535 1536 1536 1536 1536 1536 1536
1461 1462 1465 1467 1470 1472 1475 1478 1481 1484 1487 1490 1493 1496 1499 1501 1504 1507 1509 1511 1514 1516 1518 1520 1522 1523 1525 1527 1529 1531 1532 1533 1533 1534 1534 1535 1536 1537 1537 1537 1537 1537 1537
1459 1461 1463 1466 1468 1470 1473 1476 1479 1482 1486 1489 1492 1495 1498 1500 1503 1506 1508 1511 1513 1515 1518 1520 1522 1523 1525 1527 1529 1531 1532 1533 1534 1534 1535 1536 1536 1537 1537 1537 1537 1537 1537
1458 1460 1462 1464 1466 1468 1471 1474 1477 1480 1483 1487 1490 1493 1496 1499 1502 1504 1507 1510 1513 1515 1517 1519 1521 1523 1525 1528 1530 1531 1533 1534 1534 1534 1535 1536 1537 1537 1538 1538 1538 1538 1538
1455 1457 1459 1461 1463 1465 1468 1471 1474 1477 1480 1484 1487 1491 1494 1497 1500 1503 1506 1509 1512 1514 1516 1519 1521 1523 1525 1527 1529 1531 1533 1534 1534 1534 1535 1536 1537 1538 1538 1538 1538 1538 1538
1452 1454 1456 1458 1460 1462 1465 1468 1470 1474 1477 1481 1484 1488 1492 1495 1498 1501 1504 1507 1510 1513 1515 1518 1520 1522 1525 1527 1529 1531 1532 1534 1534 1534 1535 1536 1537 1537 1538 1538 1538 1538 1538
1449 1451 1452 1454 1457 1459 1461 1464 1467 1470 1474 1477 1481 1485 1488 1492 1495 1498 1502 1505 1508 1511 1514 1517 1519 1522 1524 1527 1529 1531 1532 1533 1533 1534 1535 1536 1537 1537 1538 1538 1538 1538 1538
1445 1447 1449 1450 1453 1455 1458 1461 1464 1466 1470 1474 1477 1481 1485 1489 1492 1496 1499 1503 1506 1510 1513 1515 1519 1521 1523 1526 1528 1530 1531 1532 1533 1534 1534 1535 1536 1537 1537 1537 1537 1537 1537
1440 1442 1444 1446 1448 1451 1454 1457 1460 1463 1466 1470 1473 1477 1481 1485 1489 1493 1497 1501 1504 1508 1511 1514 1517 1520 1523 1525 1527 1529 1530 1532 1532 1533 1534 1534 1535 1536 1536 1537 1537 1536 1536
1435 1437 1440 1442 1444 1446 1449 1452 1456 1459 1463 1466 1469 1473 1477 1481 1485 1490 1494 1498 1502 1506 1510 1513 1516 1519 1521 1524 1526 1528 1529 1531 1531 1532 1533 1533 1534 1535 1536 1536 1536 1536 1535
1430 1432 1435 1437 1439 1442 1445 1448 1452 1455 1459 1461 1464 1469 1473 1477 1482 1486 1491 1495 1499 1503 1507 1511 1514 1517 1520 1522 1524 1526 1528 1529 1530 1531 1532 1532 1533 1534 1534 1534 1535 1534 1534
1425 1426 1429 1431 1434 1437 1440 1444 1447 1451 1454 1457 1460 1464 1469 1473 1478 1482 1487 1492 1496 1500 1504 1508 1512 1515 1517 1520 1522 1524 1526 1527 1529 1530 1530 1531 1532 1532 1533 1533 1533 1533 1532
1420 1422 1424 1425 1429 1432 1435 1439 1443 1446 1449 1452 1455 1459 1464 1469 1473 1478 1483 1488 1493 1497 1501 1505 1509 1512 1515 1518 1521 1523 1525 1526 1527 1528 1529 1530 1530 1531 1531 1531 1531 1531 1530
1414 1416 1418 1419 1423 1426 1429 1433 1437 1440 1444 1447 1451 1456 1460 1464 1469 1474 1479 1484 1489 1493 1497 1502 1506 1510 1513 1516 1518 1521 1523 1524 1525 1526 1527 1528 1528 1529 1529 1529 1529 1528 1528
1409 1410 1412 1414 1417 1420 1424 1428 1432 1436 1439 1443 1447 1450 1455 1460 1464 1469 1474 1479 1485 1489 1494 1498 1502 1506 1509 1512 1514 1517 1520 1523 1522 1524 1524 1525 1526 1526 1526 1527 1526 1526 1525
1404 1406 1407 1410 1412 1415 1420 1424 1428 1432 1435 1438 1440 1445 1451 1455 1459 1465 1470 1475 1480 1485 1489 1494 1498 1502 1505 1509 1511 1514 1516 1517 1519 1521 1521 1522 1523 1523 1524 1524 1524 1523 1523
1400 1401 1403 1405 1408 1412 1415 1418 1421 1424 1427 1430 1435 1440 1446 1450 1455 1461 1465 1470 1476 1480 1485 1490 1494 1498 1501 1504 1508 1510 1513 1514 1516 1517 1519 1519 1520 1520 1521 1521 1521 1520 1520
1396 1397 1399 1401 1404 1407 1410 1413 1417 1420 1423 1427 1431 1435 1440 1445 1450 1456 1461 1465 1471 1476 1481 1486 1490 1494 1497 1500 1503 1506 1509 1511 1512 1513 1514 1516 1517 1517 1518 1518 1518 1517 1517
1393 1393 1394 1396 1399 1402 1405 1408 1412 1415 1418 1422 1426 1430 1435 1440 1444 1449 1455 1460 1465 1471 1476 1481 1485 1489 1493 1496 1499 1502 1504 1506 1508 1510 1511 1512 1513 1514 1514 1515 1514 1514 1513